Hourly Weather Al Khums

Today, 26 February, Friday

Time Temperature Precipitation Wind Pressure Humidity
00:00 +14°C° 0 mm 3 mps 768 mmHg 82%
01:00 +14°C° 0 mm 3 mps 768 mmHg 82%
02:00 +14°C° 0 mm 3 mps 768 mmHg 81%
03:00 +15°C° 0 mm 2 mps 768 mmHg 80%
04:00 +15°C° 0 mm 2 mps 768 mmHg 79%
05:00 +15°C° 0 mm 2 mps 768 mmHg 79%
06:00 +14°C° 0 mm 1 mps 768 mmHg 78%
07:00 +14°C° 0 mm 1 mps 768 mmHg 77%
08:00 +15°C° 0 mm 1 mps 768 mmHg 72%
09:00 +16°C° 0 mm 2 mps 768 mmHg 68%
10:00 +17°C° 0 mm 2 mps 769 mmHg 64%
11:00 +17°C° 0 mm 2 mps 768 mmHg 62%
12:00 +17°C° 0 mm 2 mps 768 mmHg 60%
13:00 +17°C° 0 mm 2 mps 768 mmHg 58%
14:00 +17°C° 0 mm 3 mps 767 mmHg 59%
15:00 +17°C° 0 mm 3 mps 767 mmHg 59%
16:00 +17°C° 0 mm 4 mps 766 mmHg 59%
17:00 +17°C° 0 mm 4 mps 766 mmHg 63%
18:00 +15°C° 0 mm 4 mps 766 mmHg 66%
19:00 +14°C° 0 mm 4 mps 766 mmHg 69%
20:00 +14°C° 0 mm 4 mps 766 mmHg 71%
21:00 +14°C° 0 mm 3 mps 767 mmHg 72%
22:00 +13°C° 0 mm 3 mps 767 mmHg 73%
23:00 +14°C° 0 mm 2 mps 767 mmHg 76%

Tomorrow, 27 February, Saturday

Time Temperature Precipitation Wind Pressure Humidity
00:00 +14°C° 0 mm 2 mps 766 mmHg 78%
01:00 +13°C° 0 mm 1 mps 766 mmHg 81%
02:00 +13°C° 0 mm 1 mps 766 mmHg 83%
03:00 +11°C° 0 mm 0 mps 766 mmHg 84%
04:00 +11°C° 0 mm 0 mps 765 mmHg 86%
05:00 +11°C° 0 mm 0 mps 765 mmHg 86%
06:00 +11°C° 0 mm 0 mps 765 mmHg 86%
07:00 +11°C° 0 mm 0 mps 765 mmHg 87%
08:00 +12°C° 0 mm 0 mps 766 mmHg 80%
09:00 +13°C° 0 mm 0 mps 766 mmHg 74%
10:00 +14°C° 0 mm 0 mps 766 mmHg 67%
11:00 +16°C° 0 mm 1 mps 766 mmHg 63%
12:00 +18°C° 0 mm 1 mps 765 mmHg 59%
13:00 +18°C° 0 mm 2 mps 765 mmHg 55%
14:00 +17°C° 0 mm 3 mps 765 mmHg 57%
15:00 +17°C° 0 mm 3 mps 764 mmHg 60%
16:00 +17°C° 0 mm 4 mps 764 mmHg 63%
17:00 +15°C° 0 mm 4 mps 764 mmHg 65%
18:00 +16°C° 0 mm 3 mps 764 mmHg 67%
19:00 +14°C° 0 mm 3 mps 764 mmHg 69%
20:00 +14°C° 0 mm 3 mps 764 mmHg 70%
21:00 +14°C° 0 mm 3 mps 765 mmHg 71%
22:00 +13°C° 0 mm 3 mps 765 mmHg 72%
23:00 +13°C° 0 mm 3 mps 765 mmHg 73%

Day after tomorrow, 28 February, Sunday

Time Temperature Precipitation Wind Pressure Humidity
00:00 +13°C° 0 mm 3 mps 765 mmHg 74%
01:00 +12°C° 0 mm 3 mps 765 mmHg 75%
02:00 +12°C° 0 mm 3 mps 764 mmHg 75%
03:00 +12°C° 0 mm 3 mps 764 mmHg 76%
04:00 +13°C° 0 mm 2 mps 764 mmHg 76%
05:00 +13°C° 0 mm 2 mps 764 mmHg 77%
06:00 +12°C° 0 mm 2 mps 764 mmHg 77%
07:00 +12°C° 0 mm 2 mps 764 mmHg 77%
08:00 +14°C° 0 mm 2 mps 765 mmHg 69%
09:00 +14°C° 0 mm 3 mps 765 mmHg 62%
10:00 +17°C° 0 mm 3 mps 765 mmHg 55%
11:00 +18°C° 0 mm 3 mps 765 mmHg 51%
12:00 +19°C° 0 mm 3 mps 765 mmHg 47%
13:00 +20°C° 0 mm 3 mps 765 mmHg 44%
14:00 +19°C° 0 mm 4 mps 764 mmHg 49%
15:00 +19°C° 0 mm 5 mps 764 mmHg 53%
16:00 +17°C° 0 mm 6 mps 764 mmHg 58%
17:00 +16°C° 0 mm 6 mps 764 mmHg 63%
18:00 +16°C° 0 mm 5 mps 764 mmHg 68%
19:00 +15°C° 0 mm 5 mps 765 mmHg 73%
20:00 +15°C° 0 mm 5 mps 765 mmHg 74%
21:00 +14°C° 0 mm 4 mps 765 mmHg 75%
22:00 +14°C° 0 mm 4 mps 766 mmHg 76%
23:00 +14°C° 0 mm 4 mps 766 mmHg 76%

1 March, Monday

Time Temperature Precipitation Wind Pressure Humidity
00:00 +13°C° 0 mm 4 mps 766 mmHg 76%
01:00 +13°C° 0 mm 3 mps 766 mmHg 76%
02:00 +13°C° 0 mm 3 mps 766 mmHg 77%
03:00 +12°C° 0 mm 3 mps 765 mmHg 78%
04:00 +12°C° 0 mm 3 mps 765 mmHg 79%
05:00 +12°C° 0 mm 3 mps 765 mmHg 80%
06:00 +12°C° 0 mm 3 mps 765 mmHg 80%
07:00 +12°C° 0 mm 3 mps 765 mmHg 81%
08:00 +13°C° 0 mm 3 mps 766 mmHg 74%
09:00 +16°C° 0 mm 3 mps 766 mmHg 67%
10:00 +17°C° 0 mm 3 mps 766 mmHg 59%
11:00 +18°C° 0 mm 4 mps 766 mmHg 56%
12:00 +19°C° 0 mm 4 mps 766 mmHg 52%
13:00 +19°C° 0 mm 4 mps 766 mmHg 49%
14:00 +19°C° 0 mm 5 mps 765 mmHg 53%
15:00 +17°C° 0 mm 6 mps 765 mmHg 57%
16:00 +17°C° 0 mm 7 mps 765 mmHg 61%
17:00 +16°C° 0 mm 7 mps 765 mmHg 64%
18:00 +16°C° 0 mm 6 mps 765 mmHg 68%
19:00 +15°C° 0 mm 6 mps 766 mmHg 71%
20:00 +15°C° 0 mm 6 mps 766 mmHg 72%
21:00 +14°C° 0 mm 6 mps 766 mmHg 72%
22:00 +14°C° 0 mm 5 mps 767 mmHg 73%
23:00 +14°C° 0 mm 5 mps 767 mmHg 74%

2 March, Tuesday

Time Temperature Precipitation Wind Pressure Humidity
00:00 +13°C° 0 mm 5 mps 767 mmHg 75%
01:00 +13°C° 0 mm 5 mps 766 mmHg 77%
02:00 +12°C° 0 mm 5 mps 766 mmHg 78%
03:00 +12°C° 0 mm 4 mps 766 mmHg 80%
04:00 +12°C° 0 mm 4 mps 766 mmHg 82%
05:00 +12°C° 0 mm 4 mps 766 mmHg 82%
06:00 +12°C° 0 mm 4 mps 766 mmHg 83%
07:00 +12°C° 0 mm 4 mps 767 mmHg 84%
08:00 +13°C° 0 mm 5 mps 767 mmHg 76%
09:00 +15°C° 0 mm 5 mps 767 mmHg 68%
10:00 +16°C° 0 mm 5 mps 767 mmHg 59%
11:00 +17°C° 0 mm 6 mps 767 mmHg 55%
12:00 +19°C° 0 mm 6 mps 767 mmHg 51%
13:00 +20°C° 0 mm 6 mps 767 mmHg 47%
14:00 +18°C° 0 mm 7 mps 766 mmHg 51%
15:00 +18°C° 0 mm 8 mps 766 mmHg 55%
16:00 +18°C° 0 mm 8 mps 766 mmHg 59%
17:00 +17°C° 0 mm 8 mps 766 mmHg 63%
18:00 +16°C° 0 mm 8 mps 766 mmHg 67%
19:00 +16°C° 0 mm 8 mps 766 mmHg 71%
20:00 +15°C° 0 mm 7 mps 766 mmHg 73%
21:00 +15°C° 0 mm 7 mps 767 mmHg 76%
22:00 +15°C° 0 mm 7 mps 767 mmHg 79%
23:00 +14°C° 0 mm 7 mps 767 mmHg 80%

3 March, Wednesday

Time Temperature Precipitation Wind Pressure Humidity
00:00 +14°C° 0 mm 7 mps 767 mmHg 82%
01:00 +13°C° 0 mm 8 mps 767 mmHg 83%
02:00 +13°C° 0 mm 8 mps 767 mmHg 84%
03:00 +12°C° 0 mm 8 mps 767 mmHg 84%
04:00 +12°C° 0 mm 8 mps 766 mmHg 85%
05:00 +12°C° 0 mm 8 mps 767 mmHg 85%
06:00 +12°C° 0 mm 8 mps 767 mmHg 86%
07:00 +12°C° 0 mm 8 mps 767 mmHg 86%
08:00 +13°C° 0 mm 9 mps 767 mmHg 78%
09:00 +16°C° 0 mm 10 mps 767 mmHg 70%
10:00 +17°C° 0 mm 11 mps 768 mmHg 61%
11:00 +18°C° 0 mm 11 mps 767 mmHg 59%
12:00 +18°C° 0 mm 11 mps 767 mmHg 56%
13:00 +19°C° 0 mm 12 mps 766 mmHg 53%
14:00 +18°C° 0 mm 12 mps 766 mmHg 55%
15:00 +18°C° 0 mm 12 mps 766 mmHg 57%
16:00 +17°C° 0 mm 13 mps 765 mmHg 59%
17:00 +17°C° 0 mm 13 mps 766 mmHg 63%
18:00 +15°C° 0 mm 13 mps 766 mmHg 66%
19:00 +14°C° 0 mm 13 mps 766 mmHg 70%
20:00 +14°C° 0 mm 13 mps 766 mmHg 71%
21:00 +13°C° 0 mm 13 mps 766 mmHg 72%
22:00 +13°C° 0 mm 13 mps 766 mmHg 73%
23:00 +13°C° 0 mm 12 mps 766 mmHg 73%
Show more